Weather History for Plattsmouth, NE

Change the Weather History Date:

Tuesday, April 8, 2014

  Actual Average (KOFF) Record (KOFF)
Temperature  
Mean Temperature 47 °F -  
Max Temperature 59 °F 57 °F 78 °F (2001)
Min Temperature 35 °F 37 °F 15 °F (2007)
Degree Days  
Heating Degree Days 18    
Moisture  
Dew Point 25 °F    
Average Humidity 47    
Maximum Humidity 84    
Minimum Humidity 13    
Precipitation  
Precipitation 0.00 in - - ()
Sea Level Pressure  
Sea Level Pressure 30.02 in    
Wind  
Wind Speed 11 mph (NW)    
Max Wind Speed 20 mph    
Max Gust Speed 26 mph    
Visibility 10 miles    
Events Rain    
Averages and records for this station are not official NWS values.
T = Trace of Precipitation, MM = Missing Value Source: NWS Daily Summary

Daily Weather History Graph

Daily Weather History Graph

Search for Another Location

Airport:

Trip Planner

Search our weather history database for the weather conditions in past years. The results will help you decide how hot, cold, wet, or windy it might be!

Date:

Astronomy

Apr. 08, 2014 Rise Set
Actual Time 6:55 AM CDT 7:56 PM CDT
Civil Twilight 6:27 AM CDT 8:24 PM CDT
Nautical Twilight 5:54 AM CDT 8:57 PM CDT
Astronomical Twilight 5:19 AM CDT 9:32 PM CDT
Moon 1:48 PM CDT (4/8) 3:11 AM CDT (4/8)
Length of Visible Light 13h 56m
Length of Day
13h 00m
Waxing Gibbous, 63% of the Moon is Illuminated
Apr 8
Waxing Gibbous
Apr 15
Full
Apr 22
Last Quarter
Apr 29
New
May 6
First Quarter

Hourly Weather History & Observations

Time (CDT) Temp. Windchill Dew Point Humidity Pressure Visibility Wind Dir Wind Speed Gust Speed Precip Events Conditions
12:15 AM 43.0 °F 38.8 °F 32.0 °F 65% 29.92 in 10.0 mi WNW 6.9 mph - N/A   Clear
12:35 AM 45.3 °F 41.1 °F 32.9 °F 62% 29.93 in 10.0 mi WNW 8.1 mph - N/A   Mostly Cloudy
1:15 AM 45.0 °F 39.3 °F 32.0 °F 60% 29.93 in 10.0 mi NW 11.5 mph - N/A   Scattered Clouds
1:35 AM 45.0 °F 38.9 °F 31.5 °F 59% 29.93 in 10.0 mi NW 12.7 mph - N/A   Clear
1:55 AM 44.6 °F 39.2 °F 31.1 °F 59% 29.94 in 10.0 mi NW 10.4 mph - N/A   Clear
2:15 AM 44.1 °F 39.0 °F 31.6 °F 62% 29.94 in 10.0 mi NW 9.2 mph - N/A   Scattered Clouds
2:35 AM 44.2 °F 39.2 °F 32.0 °F 62% 29.93 in 10.0 mi NW 9.2 mph - N/A   Mostly Cloudy
2:55 AM 45.1 °F 39.9 °F 32.4 °F 61% 29.93 in 10.0 mi NW 10.4 mph - N/A   Overcast
3:15 AM 46.0 °F 39.9 °F 33.8 °F 62% 29.93 in 10.0 mi NW 13.8 mph - N/A   Overcast
3:35 AM 46.4 °F 40.7 °F 33.8 °F 62% 29.93 in 10.0 mi NNW 12.7 mph 18.4 mph N/A Rain Light Rain
3:55 AM 44.1 °F 38.1 °F 34.0 °F 68% 29.94 in 10.0 mi NW 11.5 mph - N/A   Scattered Clouds
4:15 AM 42.6 °F 37.8 °F 33.1 °F 69% 29.94 in 10.0 mi NW 8.1 mph - N/A   Clear
4:35 AM 41.4 °F 35.2 °F 32.7 °F 71% 29.94 in 10.0 mi NW 10.4 mph - N/A   Clear
4:55 AM 41.7 °F 35.2 °F 32.2 °F 69% 29.94 in 10.0 mi NW 11.5 mph - N/A   Clear
5:15 AM 40.1 °F 34.1 °F 32.0 °F 73% 29.95 in 10.0 mi NW 9.2 mph - N/A   Clear
5:35 AM 38.8 °F 32.6 °F 32.0 °F 76% 29.96 in 10.0 mi NW 9.2 mph - N/A   Clear
5:55 AM 37.6 °F 31.6 °F 32.0 °F 80% 29.97 in 10.0 mi WNW 8.1 mph - N/A   Clear
6:15 AM 37.2 °F 31.2 °F 32.0 °F 81% 29.97 in 10.0 mi WNW 8.1 mph - N/A   Clear
6:35 AM 36.5 °F 29.7 °F 31.8 °F 83% 29.98 in 10.0 mi WNW 9.2 mph - N/A   Clear
6:55 AM 36.5 °F 29.7 °F 31.8 °F 83% 29.99 in 10.0 mi WNW 9.2 mph - N/A   Clear
7:15 AM 35.6 °F 29.2 °F 31.3 °F 84% 30.00 in 10.0 mi WNW 8.1 mph - N/A   Clear
7:35 AM 36.9 °F 30.7 °F 32.0 °F 83% 30.01 in 10.0 mi WNW 8.1 mph - N/A   Clear
7:55 AM 38.3 °F 31.9 °F 32.9 °F 81% 30.01 in 10.0 mi NW 9.2 mph - N/A   Clear
8:15 AM 39.9 °F 32.1 °F 33.6 °F 78% 30.01 in 10.0 mi NW 13.8 mph - N/A   Clear
8:35 AM 41.5 °F 33.8 °F 34.0 °F 75% 30.02 in 10.0 mi NW 15.0 mph - N/A   Clear
8:55 AM 43.0 °F 35.1 °F 34.0 °F 71% 30.02 in 10.0 mi NNW 17.3 mph 25.3 mph N/A   Clear
9:15 AM 43.9 °F 36.2 °F 33.8 °F 68% 30.02 in 10.0 mi NNW 17.3 mph 25.3 mph N/A   Clear
9:35 AM 45.1 °F 38.4 °F 33.8 °F 65% 30.03 in 10.0 mi NNW 15.0 mph 19.6 mph N/A   Clear
9:55 AM 46.4 °F 39.5 °F 33.8 °F 62% 30.04 in 10.0 mi NNW 17.3 mph - N/A   Clear
10:15 AM 47.1 °F - 33.8 °F 60% 30.05 in 10.0 mi NW 19.6 mph 24.2 mph N/A   Clear
10:35 AM 47.3 °F - 33.3 °F 58% 30.06 in 10.0 mi NNW 13.8 mph 24.2 mph N/A   Clear
10:55 AM 47.7 °F - 33.6 °F 58% 30.06 in 10.0 mi NW 16.1 mph 23.0 mph N/A   Scattered Clouds
11:15 AM 48.0 °F - 33.8 °F 58% 30.08 in 10.0 mi NW 16.1 mph 21.9 mph N/A   Mostly Cloudy
11:35 AM 49.8 °F - 33.6 °F 54% 30.08 in 10.0 mi NNW 17.3 mph 24.2 mph N/A   Mostly Cloudy
11:55 AM 49.6 °F - 33.3 °F 53% 30.07 in 10.0 mi NW 19.6 mph 24.2 mph N/A   Mostly Cloudy
12:15 PM 50.7 °F - 33.1 °F 51% 30.08 in 10.0 mi NW 18.4 mph 23.0 mph N/A   Scattered Clouds
12:35 PM 51.6 °F - 32.0 °F 47% 30.08 in 10.0 mi NW 17.3 mph 26.5 mph N/A   Scattered Clouds
12:55 PM 50.9 °F - 31.5 °F 47% 30.07 in 10.0 mi NW 16.1 mph 21.9 mph N/A   Scattered Clouds
1:15 PM 53.6 °F - 30.9 °F 42% 30.08 in 10.0 mi NW 15.0 mph 21.9 mph N/A   Scattered Clouds
1:35 PM 52.9 °F - 30.2 °F 42% 30.08 in 10.0 mi NNW 15.0 mph 25.3 mph N/A   Scattered Clouds
1:55 PM 53.8 °F - 30.2 °F 41% 30.07 in 10.0 mi NW 16.1 mph 20.7 mph N/A   Scattered Clouds
2:15 PM 54.5 °F - 28.9 °F 38% 30.07 in 10.0 mi NW 13.8 mph 23.0 mph N/A   Scattered Clouds
2:35 PM 54.7 °F - 27.9 °F 36% 30.06 in 10.0 mi NW 12.7 mph 26.5 mph N/A   Scattered Clouds
2:55 PM 56.5 °F - 25.0 °F 30% 30.06 in 10.0 mi North 13.8 mph 24.2 mph N/A   Clear
3:15 PM 56.8 °F - 23.9 °F 28% 30.06 in 10.0 mi NW 17.3 mph 26.5 mph N/A   Clear
3:35 PM 57.6 °F - 20.5 °F 24% 30.05 in 10.0 mi NNW 12.7 mph 19.6 mph N/A   Scattered Clouds
3:55 PM 58.3 °F - 17.4 °F 20% 30.04 in 10.0 mi NNW 9.2 mph 20.7 mph N/A   Clear
4:15 PM 58.5 °F - 15.6 °F 19% 30.04 in 10.0 mi NNW 9.2 mph 18.4 mph N/A   Clear
4:35 PM 59.4 °F - 14.0 °F 17% 30.04 in 10.0 mi NW 17.3 mph 25.3 mph N/A   Clear
4:55 PM 59.2 °F - 12.2 °F 16% 30.04 in 10.0 mi WNW 12.7 mph 21.9 mph N/A   Clear
5:15 PM 59.0 °F - 9.7 °F 14% 30.04 in 10.0 mi North 12.7 mph 25.3 mph N/A   Clear
5:35 PM 59.2 °F - 7.9 °F 13% 30.04 in 10.0 mi NNW 12.7 mph 23.0 mph N/A   Clear
5:55 PM 58.6 °F - 8.4 °F 14% 30.04 in 10.0 mi WNW 11.5 mph 20.7 mph N/A   Clear
6:15 PM 57.9 °F - 9.5 °F 15% 30.04 in 10.0 mi NNW 11.5 mph - N/A   Clear
6:35 PM 57.4 °F - 10.4 °F 16% 30.05 in 10.0 mi NW 10.4 mph - N/A   Clear
6:55 PM 56.3 °F - 11.3 °F 17% 30.05 in 10.0 mi NNW 12.7 mph - N/A   Clear
7:15 PM 55.0 °F - 12.9 °F 19% 30.06 in 10.0 mi NNW 10.4 mph - N/A   Clear
7:35 PM 52.3 °F - 13.6 °F 21% 30.06 in 10.0 mi NNW 6.9 mph - N/A   Clear
7:55 PM 49.6 °F - 14.2 °F 24% 30.07 in 10.0 mi NW 5.8 mph - N/A   Clear
8:15 PM 47.3 °F - 13.6 °F 26% 30.07 in 10.0 mi WNW 3.5 mph - N/A   Clear
8:35 PM 49.8 °F - 13.1 °F 23% 30.07 in 10.0 mi WNW 4.6 mph - N/A   Clear
8:55 PM 46.4 °F 44.3 °F 14.0 °F 27% 30.07 in 10.0 mi WNW 4.6 mph - N/A   Clear
9:15 PM 46.2 °F 44.1 °F 14.0 °F 27% 30.08 in 10.0 mi West 4.6 mph - N/A   Clear
9:35 PM 46.8 °F - 13.8 °F 27% 30.08 in 10.0 mi West 3.5 mph - N/A   Clear
9:55 PM 46.2 °F 44.1 °F 14.4 °F 28% 30.08 in 10.0 mi West 4.6 mph - N/A   Clear
10:15 PM 44.8 °F 43.3 °F 15.4 °F 31% 30.08 in 10.0 mi WSW 3.5 mph - N/A   Clear
10:35 PM 45.7 °F 44.4 °F 15.8 °F 30% 30.07 in 10.0 mi West 3.5 mph - N/A   Clear
10:55 PM 44.6 °F 42.2 °F 16.2 °F 32% 30.07 in 10.0 mi West 4.6 mph - N/A   Clear
11:15 PM 44.6 °F 43.1 °F 16.2 °F 32% 30.07 in 10.0 mi West 3.5 mph - N/A   Clear
11:35 PM 45.0 °F - 16.2 °F 32% 30.06 in 10.0 mi Calm Calm - N/A   Clear
11:55 PM 45.0 °F - 16.0 °F 31% 30.06 in 10.0 mi Calm Calm - N/A   Clear